Location: *
(34.0486°S, 61.7880°E)
Time: 12:58:53
(UTC+00:00)

Meteor 1-21 - Pass Details

Date: 01 April 2020
Orbit: 843 x 889 km, 81.2° (Epoch: 04 June)

Event Time Altitude Azimuth Distance (km) Brightness Sun altitude
Rises 14:01:50 0° 354° (N) 3,424 7.5 -3.8°
Reaches altitude 10° 14:04:15 10° 354° (N) 2,488 6.8 -4.3°
Maximum altitude 14:09:54 88° 79° (E) 864 4.3 -5.5°
Drops below altitude 10° 14:15:35 10° 171° (S) 2,497 6.6 -6.7°
Sets 14:18:01 0° 171° (S) 3,436 7.3 -7.2°
